Monterey Regional Airport

Airport
ICAO code: 
KMRY
Summary
ICAO Region: 
NAM
Territory: 
Location: 
Monterey, California,
Serving: 
Monterey, California
Coordinates: 
Aerial View: 
36° 35' 17.768" N, 121° 50' 56.793" W
Airport LOS: 
Parallel Runway Operation
Airport WX: 
Fog
Metar
Observation
KMRY 241554Z 10006KT 10SM CLR 06/M02 A3017 RMK AO2 SLP230 T00561022 $
Station
Monterey, Monterey Peninsula Airport
Date/Time
2022-01-24 15:54:00
Wind direction
100°
Wind speed
06 kts
Lowest cloud amount
n/a
Temperature
5.6°C
Dew point
-2.2°C
Humidity
57%
Weather condition
n/a

Description

Monterey Regional Airport is a regional airport located 5 km southeast of the central business district of Monterey, a city in Monterey County, California.

Climatology

Dry-summer subtropical ”Mediterranean" climate (Köppen climate classification Csb) - characterized by warm, dry summers and mild winters.

Runways

Designator Length Width Surface Rops
10L/28R 1071 18 ASP Yes/Yes
10R/28L 2321 46 ASP Yes/Yes
Airport map: 
Aerial View: 

SKYbrary Partners:

Safety knowledge contributed by: